This is the latest recevied weather packets stored in our database for station/object DL6MAA-11. If no packets are shown the sender has not sent any weather packets the latest 10 day(s).
| Time | Temp. | Humidity | Pressure | Rain* | Wind** | Luminosity | Snow |
|---|---|---|---|---|---|---|---|
| 1777141047 | 16.67° C | 36% | 1013.5 hPa | 0 mm | - | 0 W/m² | - |
| 1777140759 | 17.22° C | 35% | 1013.6 hPa | 0 mm | - | 9 W/m² | - |
| 1777140449 | 17.22° C | 35% | 1013.6 hPa | 0 mm | - | 7 W/m² | - |
| 1777140155 | 17.22° C | 34% | 1013.6 hPa | 0 mm | - | 9 W/m² | - |
| 1777139862 | 17.22° C | 34% | 1013.5 hPa | 0 mm | - | 12 W/m² | - |
| 1777139566 | 17.22° C | 34% | 1013.5 hPa | 0 mm | - | 16 W/m² | - |
| 1777139251 | 17.22° C | 35% | 1013.5 hPa | 0 mm | - | 12 W/m² | - |
| 1777138956 | 17.22° C | 34% | 1013.5 hPa | 0 mm | - | 18 W/m² | - |
| 1777138666 | 17.78° C | 34% | 1013.5 hPa | 0 mm | - | 16 W/m² | - |
| 1777138366 | 17.78° C | 34% | 1013.5 hPa | 0 mm | - | 21 W/m² | - |
| 1777138048 | 18.33° C | 34% | 1013.1 hPa | 0 mm | - | 18 W/m² | - |
| 1777137745 | 18.33° C | 33% | 1013.1 hPa | 0 mm | - | 19 W/m² | - |
| 1777137449 | 18.33° C | 33% | 1013.1 hPa | 0 mm | - | 21 W/m² | - |
| 1777137152 | 18.89° C | 33% | 1013.3 hPa | 0 mm | - | 23 W/m² | - |
| 1777136858 | 18.89° C | 34% | 1013.3 hPa | 0 mm | - | 21 W/m² | - |
| 1777136565 | 18.89° C | 35% | 1013.3 hPa | 0 mm | - | 33 W/m² | - |
| 1777136264 | 19.44° C | 34% | 1013.2 hPa | 0 mm | - | 23 W/m² | - |
| 1777135964 | 19.44° C | 34% | 1013.2 hPa | 0 mm | - | 25 W/m² | - |
| 1777135646 | 20° C | 35% | 1013.2 hPa | 0 mm | - | 40 W/m² | - |
| 1777135352 | 20° C | 34% | 1013.2 hPa | 0 mm | - | 32 W/m² | - |
| 1777135059 | 20° C | 34% | 1013.2 hPa | 0 mm | - | 26 W/m² | - |
| 1777134764 | 20° C | 33% | 1013.2 hPa | 0 mm | - | 49 W/m² | - |
| 1777134451 | 20.56° C | 32% | 1013.1 hPa | 0 mm | - | 58 W/m² | - |
| 1777134157 | 20.56° C | 33% | 1013.1 hPa | 0 mm | - | 51 W/m² | - |
| 1777133857 | 20.56° C | 32% | 1013.1 hPa | 0 mm | - | 44 W/m² | - |
* Rain since midnight (hover to see other rain measurements)
** Current wind speed in m/s (hover to see current wind gust speed)